Total_Precipitation_Accumulation
0.16 0.16 0.17 0.15 0.14 0.15 0.16 0.22 0.29 0.25 0.17 0.10 0.09 0.11 0.19 0.24 0.27 0.29 0.28 0.15 0.11 0.09 0.08 0.11 0.14 0.18 0.22 0.25 0.26 0.28 0.27 0.27 0.32 0.42 0.55 0.67 0.75 0.80
0.16 0.15 0.15 0.14 0.15 0.16 0.17 0.19 0.26 0.33 0.29 0.15 0.11 0.13 0.20 0.23 0.30 0.32 0.29 0.25 0.17 0.13 0.13 0.25 0.34 0.34 0.36 0.34 0.32 0.35 0.37 0.38 0.38 0.42 0.51 0.62 0.74 0.84
0.12 0.12 0.12 0.13 0.14 0.14 0.17 0.22 0.26 0.34 0.36 0.18 0.12 0.17 0.25 0.30 0.35 0.35 0.32 0.30 0.25 0.24 0.20 0.30 0.55 0.74 0.67 0.56 0.49 0.44 0.44 0.46 0.46 0.48 0.55 0.63 0.68 0.76
0.11 0.11 0.10 0.11 0.13 0.14 0.17 0.20 0.24 0.30 0.38 0.30 0.19 0.22 0.29 0.38 0.46 0.47 0.41 0.36 0.33 0.36 0.33 0.33 0.50 0.92 1.02 0.80 0.70 0.59 0.50 0.48 0.49 0.52 0.57 0.61 0.63 0.69
0.10 0.12 0.12 0.13 0.15 0.18 0.23 0.24 0.27 0.29 0.41 0.48 0.37 0.32 0.35 0.45 0.58 0.57 0.47 0.48 0.37 0.35 0.37 0.41 0.55 1.08 1.44 1.22 0.94 0.83 0.66 0.57 0.51 0.53 0.58 0.61 0.58 0.56
0.09 0.11 0.13 0.17 0.21 0.24 0.25 0.28 0.35 0.40 0.42 0.47 0.44 0.41 0.44 0.51 0.65 0.71 0.58 0.50 0.41 0.29 0.36 0.44 0.59 1.06 1.62 1.81 1.46 1.19 0.96 0.76 0.63 0.55 0.53 0.52 0.47 0.42
0.09 0.12 0.13 0.16 0.21 0.25 0.27 0.34 0.46 0.53 0.50 0.50 0.49 0.48 0.51 0.61 0.67 0.68 0.62 0.49 0.35 0.31 0.36 0.41 0.66 1.30 1.85 2.17 2.05 1.54 1.14 0.90 0.73 0.62 0.56 0.49 0.44 0.38
0.14 0.13 0.10 0.10 0.12 0.17 0.25 0.33 0.43 0.52 0.58 0.62 0.61 0.56 0.53 0.61 0.65 0.67 0.65 0.60 0.45 0.32 0.37 0.43 0.79 1.56 2.13 2.42 2.37 1.72 1.18 0.96 0.84 0.74 0.68 0.60 0.52 0.44
0.17 0.15 0.10 0.08 0.14 0.19 0.22 0.24 0.32 0.44 0.61 0.74 0.74 0.61 0.62 0.70 0.78 0.78 0.66 0.64 0.59 0.42 0.46 0.58 0.95 1.54 2.09 2.57 2.50 1.85 1.35 1.09 0.98 0.89 0.80 0.71 0.59 0.48
0.13 0.13 0.15 0.18 0.18 0.16 0.18 0.26 0.41 0.54 0.59 0.61 0.70 0.70 0.73 0.70 0.67 0.66 0.60 0.62 0.52 0.39 0.49 0.71 0.99 1.47 1.90 2.36 2.40 1.84 1.41 1.18 1.07 0.95 0.83 0.71 0.61 0.52
0.09 0.11 0.14 0.19 0.17 0.21 0.29 0.44 0.63 0.82 0.76 0.71 0.74 0.85 0.88 0.74 0.57 0.54 0.65 0.71 0.56 0.37 0.45 0.67 0.92 1.20 1.54 1.90 1.99 1.73 1.41 1.23 1.07 0.94 0.80 0.68 0.60 0.55
0.10 0.14 0.17 0.20 0.20 0.32 0.41 0.60 0.83 0.96 0.84 0.77 0.86 0.99 0.93 0.84 0.76 0.73 0.76 0.72 0.61 0.53 0.48 0.62 0.78 0.95 1.31 1.54 1.47 1.36 1.31 1.29 1.17 1.04 0.88 0.70 0.54 0.49
0.15 0.23 0.28 0.28 0.27 0.39 0.56 0.72 0.97 1.01 0.88 0.80 0.79 0.80 0.78 0.75 0.71 0.74 0.70 0.64 0.59 0.59 0.55 0.66 0.80 0.91 1.09 1.28 1.31 1.27 1.15 1.15 1.14 1.19 1.14 0.90 0.64 0.51
0.25 0.33 0.34 0.32 0.35 0.52 0.67 0.87 1.11 1.20 1.00 0.81 0.67 0.60 0.58 0.61 0.61 0.55 0.51 0.49 0.50 0.53 0.54 0.62 0.82 0.97 0.97 0.95 1.15 1.18 1.15 1.17 1.14 1.15 1.18 1.08 0.88 0.76
0.27 0.40 0.41 0.38 0.54 0.81 0.99 1.10 1.27 1.29 1.05 0.77 0.64 0.56 0.50 0.48 0.49 0.48 0.45 0.41 0.41 0.42 0.42 0.50 0.69 0.84 0.86 0.86 0.99 1.02 1.16 1.37 1.31 1.27 1.18 1.07 0.97 0.85
0.22 0.38 0.51 0.57 0.74 1.02 1.22 1.32 1.36 1.26 1.00 0.79 0.65 0.57 0.50 0.46 0.46 0.42 0.41 0.38 0.39 0.48 0.47 0.49 0.59 0.69 0.79 0.79 0.85 0.95 1.07 1.49 1.54 1.33 1.19 1.15 1.07 0.96
0.22 0.35 0.52 0.63 0.83 1.04 1.17 1.20 1.16 1.08 0.97 0.79 0.66 0.59 0.55 0.51 0.49 0.45 0.42 0.37 0.40 0.47 0.50 0.52 0.57 0.60 0.64 0.68 0.81 0.94 1.08 1.31 1.39 1.18 1.01 1.10 1.18 1.06
0.29 0.44 0.59 0.70 0.85 0.98 1.05 1.04 0.97 0.89 0.80 0.72 0.65 0.60 0.56 0.52 0.50 0.43 0.37 0.36 0.41 0.42 0.43 0.42 0.39 0.37 0.43 0.61 0.85 0.93 0.96 1.11 1.13 0.96 0.77 0.84 1.10 1.11
0.34 0.51 0.66 0.78 0.89 0.94 0.95 0.91 0.86 0.81 0.70 0.63 0.59 0.55 0.49 0.46 0.43 0.38 0.33 0.34 0.35 0.34 0.32 0.29 0.24 0.19 0.27 0.61 0.92 1.01 0.90 0.88 0.85 0.80 0.73 0.71 0.93 1.07
0.38 0.54 0.65 0.72 0.80 0.85 0.82 0.81 0.76 0.69 0.61 0.56 0.55 0.52 0.45 0.39 0.36 0.33 0.31 0.27 0.26 0.24 0.22 0.21 0.19 0.20 0.25 0.46 0.85 1.07 0.93 0.70 0.58 0.60 0.64 0.67 0.81 0.90
0.40 0.50 0.57 0.62 0.67 0.70 0.68 0.65 0.63 0.59 0.52 0.47 0.47 0.47 0.45 0.39 0.32 0.26 0.22 0.17 0.18 0.19 0.21 0.25 0.25 0.19 0.17 0.21 0.47 0.75 0.80 0.74 0.56 0.46 0.45 0.49 0.52 0.48
0.39 0.47 0.50 0.49 0.49 0.51 0.49 0.45 0.45 0.45 0.42 0.41 0.41 0.39 0.38 0.32 0.26 0.21 0.18 0.15 0.15 0.14 0.15 0.18 0.16 0.13 0.12 0.17 0.33 0.52 0.58 0.52 0.46 0.42 0.41 0.36 0.30 0.39
0.35 0.38 0.40 0.41 0.37 0.34 0.34 0.33 0.34 0.35 0.35 0.36 0.35 0.34 0.31 0.26 0.20 0.15 0.12 0.10 0.09 0.08 0.09 0.11 0.11 0.09 0.10 0.13 0.19 0.27 0.30 0.28 0.25 0.27 0.40 0.46 0.42 0.49